Ahe Airport


Codes: NTHE/AHE
Name: Ahe Airport
City: Ahe Atoll
Country: French Polynesia
Elevation: 11 ft.
Website:
Wikipedia:

Photos at Ahe Airport


   Photos courtesy of SpottingLog. You can add your own sightings and photos by signing up for a free trial today.



No photos found.

Weather at Ahe Airport


Time (UTC)DescriptionTempratureWindCloud coverageVisibilityPressureHumidity
26-Jun-2024 00:00Clear Sky27°C16 mph, E2%10000m1015hPa69%
26-Jun-2024 03:00Light Rain27°C16 mph, E3%10000m1015hPa71%
26-Jun-2024 06:00Light Rain26°C16 mph, E3%10000m1016hPa77%
26-Jun-2024 09:00Light Rain27°C13 mph, E39%10000m1016hPa75%
26-Jun-2024 12:00Light Rain27°C13 mph, E22%10000m1016hPa73%
26-Jun-2024 15:00Clear Sky27°C16 mph, E1%10000m1016hPa70%
26-Jun-2024 18:00Clear Sky27°C16 mph, E2%10000m1018hPa75%
26-Jun-2024 21:00Light Rain27°C18 mph, E0%10000m1018hPa78%
27-Jun-2024 00:00Light Rain27°C20 mph, E0%10000m1016hPa78%
27-Jun-2024 03:00Few Clouds27°C20 mph, E18%10000m1017hPa76%
27-Jun-2024 06:00Light Rain27°C22 mph, E32%10000m1018hPa77%
27-Jun-2024 09:00Light Rain27°C22 mph, E6%10000m1018hPa73%
27-Jun-2024 12:00Scattered Clouds27°C22 mph, E45%10000m1017hPa69%
27-Jun-2024 15:00Broken Clouds27°C25 mph, E74%10000m1017hPa70%
27-Jun-2024 18:00Scattered Clouds27°C25 mph, E37%10000m1019hPa69%
27-Jun-2024 21:00Clear Sky27°C27 mph, E1%10000m1018hPa68%
28-Jun-2024 00:00Clear Sky27°C25 mph, E2%10000m1016hPa67%
28-Jun-2024 03:00Clear Sky27°C25 mph, E0%10000m1016hPa69%
28-Jun-2024 06:00Clear Sky27°C25 mph, E0%10000m1017hPa72%
28-Jun-2024 09:00Light Rain27°C25 mph, E4%10000m1017hPa74%
28-Jun-2024 12:00Light Rain27°C27 mph, SE4%10000m1016hPa76%
28-Jun-2024 15:00Light Rain27°C27 mph, SE2%10000m1016hPa74%
28-Jun-2024 18:00Light Rain27°C29 mph, SE5%10000m1017hPa77%
28-Jun-2024 21:00Light Rain27°C27 mph, E5%10000m1017hPa73%
29-Jun-2024 00:00Clear Sky27°C25 mph, SE3%10000m1014hPa74%
29-Jun-2024 03:00Light Rain27°C27 mph, SE0%10000m1014hPa78%
29-Jun-2024 06:00Light Rain27°C29 mph, SE0%10000m1015hPa79%
29-Jun-2024 09:00Light Rain27°C29 mph, SE0%10000m1015hPa78%
29-Jun-2024 12:00Light Rain27°C29 mph, E5%10000m1014hPa77%
29-Jun-2024 15:00Light Rain27°C29 mph, E30%10000m1014hPa75%
29-Jun-2024 18:00Light Rain27°C29 mph, E29%10000m1015hPa77%
29-Jun-2024 21:00Light Rain27°C29 mph, E0%10000m1015hPa77%
30-Jun-2024 00:00Clear Sky27°C27 mph, E0%10000m1013hPa76%
30-Jun-2024 03:00Light Rain27°C29 mph, E1%10000m1013hPa77%
30-Jun-2024 06:00Light Rain27°C27 mph, E0%10000m1015hPa78%
30-Jun-2024 09:00Light Rain27°C29 mph, E0%10000m1015hPa77%
30-Jun-2024 12:00Clear Sky27°C27 mph, E0%10000m1014hPa74%
30-Jun-2024 15:00Light Rain27°C27 mph, E0%10000m1015hPa75%
30-Jun-2024 18:00Light Rain27°C27 mph, E0%10000m1017hPa78%
30-Jun-2024 21:00Clear Sky27°C27 mph, E0%10000m1016hPa79%